| time (UTC) | temp C | wind direction | speed KPH | gust KPH | rain 1hr cm | rain 24hr cm | rain mn cm | humidity % | barometer mb |
| 20260506035016 | 20 | 248 | 6.4 | 12.9 | 0.00 | 0.00 | 0.00 | 44 | 1009.7 |
| 20260506034512 | 20 | 249 | 6.4 | 12.9 | 0.00 | 0.00 | 0.00 | 44 | 1009.8 |
| 20260506034001 | 20 | 250 | 8.0 | 12.9 | 0.00 | 0.00 | 0.00 | 43 | 1009.8 |
| 20260506033505 | 20 | 254 | 4.8 | 11.3 | 0.00 | 0.00 | 0.00 | 43 | 1009.7 |
| 20260506033018 | 20 | 257 | 4.8 | 11.3 | 0.00 | 0.00 | 0.00 | 43 | 1009.7 |
| 20260506032503 | 20 | 261 | 6.4 | 11.3 | 0.00 | 0.00 | 0.00 | 44 | 1009.7 |
| 20260506032008 | 20 | 235 | 6.4 | 11.3 | 0.00 | 0.00 | 0.00 | 43 | 1009.7 |
| 20260506031524 | 20 | 234 | 4.8 | 11.3 | 0.00 | 0.00 | 0.00 | 44 | 1009.6 |
| 20260506031011 | 20 | 242 | 4.8 | 11.3 | 0.00 | 0.00 | 0.00 | 43 | 1009.6 |
| 20260506030507 | 20 | 227 | 4.8 | 11.3 | 0.00 | 0.00 | 0.00 | 44 | 1009.6 |
| 20260506030027 | 20 | 240 | 4.8 | 9.7 | 0.00 | 0.00 | 0.00 | 44 | 1009.7 |
| 20260506025509 | 19 | 254 | 3.2 | 9.7 | 0.00 | 0.00 | 0.00 | 44 | 1009.7 |
| 20260506025011 | 19 | 285 | 4.8 | 9.7 | 0.00 | 0.00 | 0.00 | 44 | 1009.7 |
| 20260506024540 | 19 | 254 | 1.6 | 4.8 | 0.00 | 0.00 | 0.00 | 44 | 1009.7 |
| 20260506024014 | 19 | 260 | 1.6 | 4.8 | 0.00 | 0.00 | 0.00 | 45 | 1009.7 |
| 20260506023513 | 19 | 297 | 1.6 | 4.8 | 0.00 | 0.00 | 0.00 | 45 | 1009.7 |
| 20260506023015 | 19 | 257 | 1.6 | 4.8 | 0.00 | 0.00 | 0.00 | 44 | 1009.7 |
| 20260506022508 | 19 | 293 | 0.0 | 1.6 | 0.00 | 0.00 | 0.00 | 44 | 1009.7 |
| 20260506022004 | 20 | 279 | 0.0 | 1.6 | 0.00 | 0.00 | 0.00 | 44 | 1009.8 |
| 20260506021521 | 20 | 277 | 0.0 | 3.2 | 0.00 | 0.00 | 0.00 | 43 | 1009.7 |
| 20260506021012 | 20 | 277 | 0.0 | 3.2 | 0.00 | 0.00 | 0.00 | 43 | 1009.7 |
| 20260506020509 | 20 | 277 | 0.0 | 3.2 | 0.00 | 0.00 | 0.00 | 42 | 1009.8 |
| 20260506020024 | 21 | 277 | 0.0 | 3.2 | 0.00 | 0.00 | 0.00 | 41 | 1009.9 |
| 20260506015509 | 21 | 278 | 0.0 | 3.2 | 0.00 | 0.00 | 0.00 | 41 | 1009.8 |
| 20260506015009 | 21 | 258 | 0.0 | 3.2 | 0.00 | 0.00 | 0.00 | 40 | 1009.7 |
| 20260506014530 | 21 | 261 | 0.0 | 4.8 | 0.00 | 0.00 | 0.00 | 40 | 1009.6 |
| 20260506014010 | 21 | 249 | 1.6 | 8.0 | 0.00 | 0.00 | 0.00 | 39 | 1009.6 |
| 20260506013512 | 21 | 252 | 4.8 | 8.0 | 0.00 | 0.00 | 0.00 | 39 | 1009.6 |
| 20260506013025 | 21 | 272 | 1.6 | 8.0 | 0.00 | 0.00 | 0.00 | 39 | 1009.5 |
| 20260506012510 | 22 | 242 | 1.6 | 6.4 | 0.00 | 0.00 | 0.00 | 40 | 1009.5 |
| 20260506012007 | 22 | 252 | 0.0 | 11.3 | 0.00 | 0.00 | 0.00 | 40 | 1009.3 |
| 20260506011515 | 22 | 249 | 4.8 | 11.3 | 0.00 | 0.00 | 0.00 | 39 | 1009.3 |
| 20260506011006 | 22 | 264 | 3.2 | 11.3 | 0.00 | 0.00 | 0.00 | 39 | 1009.2 |
| 20260506010502 | 22 | 242 | 6.4 | 12.9 | 0.00 | 0.00 | 0.00 | 38 | 1009.0 |
| 20260506010006 | 22 | 267 | 4.8 | 12.9 | 0.00 | 0.00 | 0.00 | 39 | 1009.0 |
| 20260506005502 | 22 | 212 | 4.8 | 12.9 | 0.00 | 0.00 | 0.00 | 39 | 1009.0 |
| 20260506005002 | 22 | 254 | 6.4 | 12.9 | 0.00 | 0.00 | 0.00 | 38 | 1008.8 |
| 20260506004506 | 22 | 323 | 3.2 | 11.3 | 0.00 | 0.00 | 0.00 | 39 | 1008.8 |
| 20260506004004 | 22 | 245 | 4.8 | 9.7 | 0.00 | 0.00 | 0.00 | 39 | 1008.8 |
| 20260506003504 | 22 | 257 | 4.8 | 9.7 | 0.00 | 0.00 | 0.00 | 39 | 1008.8 |
| 20260506003008 | 22 | 248 | 3.2 | 6.4 | 0.00 | 0.00 | 0.00 | 39 | 1008.7 |
| 20260506002506 | 22 | 260 | 3.2 | 9.7 | 0.00 | 0.00 | 0.00 | 39 | 1008.7 |
| 20260506002005 | 22 | 232 | 1.6 | 11.3 | 0.00 | 0.00 | 0.00 | 40 | 1008.6 |
| 20260506001527 | 22 | 236 | 4.8 | 11.3 | 0.00 | 0.00 | 0.00 | 39 | 1008.6 |
| 20260506001006 | 22 | 246 | 4.8 | 16.1 | 0.00 | 0.00 | 0.00 | 39 | 1008.5 |
| 20260506000503 | 22 | 257 | 9.7 | 16.1 | 0.00 | 0.00 | 0.00 | 39 | 1008.4 |
| 20260506000019 | 22 | 244 | 4.8 | 14.5 | 0.00 | 0.00 | 0.00 | 39 | 1008.3 |
| 20260505235507 | 23 | 248 | 8.0 | 14.5 | 0.00 | 0.00 | 0.00 | 39 | 1008.3 |
| 20260505235003 | 23 | 254 | 9.7 | 14.5 | 0.00 | 0.00 | 0.00 | 39 | 1008.2 |
| 20260505234503 | 23 | 220 | 8.0 | 16.1 | 0.00 | 0.00 | 0.00 | 39 | 1008.3 |
| 20260505234004 | 23 | 212 | 4.8 | 19.3 | 0.00 | 0.00 | 0.00 | 39 | 1008.2 |
| 20260505233504 | 23 | 230 | 9.7 | 19.3 | 0.00 | 0.00 | 0.00 | 39 | 1008.1 |
| 20260505233006 | 23 | 250 | 4.8 | 12.9 | 0.00 | 0.00 | 0.00 | 40 | 1008.1 |
| 20260505232507 | 23 | 266 | 6.4 | 14.5 | 0.00 | 0.00 | 0.00 | 40 | 1008.2 |
| 20260505232006 | 23 | 269 | 4.8 | 14.5 | 0.00 | 0.00 | 0.00 | 39 | 1008.1 |
| 20260505231510 | 23 | 227 | 6.4 | 17.7 | 0.00 | 0.00 | 0.00 | 39 | 1008.1 |
| 20260505231008 | 23 | 239 | 11.3 | 17.7 | 0.00 | 0.00 | 0.00 | 38 | 1008.1 |
| 20260505230505 | 23 | 257 | 4.8 | 16.1 | 0.00 | 0.00 | 0.00 | 39 | 1008.1 |
| 20260505230018 | 23 | 266 | 9.7 | 16.1 | 0.00 | 0.00 | 0.00 | 39 | 1008.0 |
| 20260505225508 | 23 | 263 | 8.0 | 17.7 | 0.00 | 0.00 | 0.00 | 39 | 1008.0 |
| 20260505225004 | 23 | 244 | 6.4 | 17.7 | 0.00 | 0.00 | 0.00 | 39 | 1008.1 |
| 20260505224520 | 23 | 263 | 9.7 | 22.5 | 0.00 | 0.00 | 0.00 | 39 | 1008.1 |
| 20260505224003 | 23 | 253 | 12.9 | 22.5 | 0.00 | 0.00 | 0.00 | 39 | 1008.0 |
| 20260505223503 | 23 | 244 | 9.7 | 20.9 | 0.00 | 0.00 | 0.00 | 40 | 1008.1 |
| 20260505223004 | 23 | 260 | 4.8 | 14.5 | 0.00 | 0.00 | 0.00 | 41 | 1007.9 |
| 20260505222504 | 23 | 239 | 6.4 | 14.5 | 0.00 | 0.00 | 0.00 | 41 | 1007.9 |
| 20260505222005 | 23 | 258 | 4.8 | 14.5 | 0.00 | 0.00 | 0.00 | 41 | 1008.0 |
| 20260505221508 | 23 | 249 | 6.4 | 12.9 | 0.00 | 0.00 | 0.00 | 40 | 1008.1 |
| 20260505221004 | 23 | 257 | 6.4 | 11.3 | 0.00 | 0.00 | 0.00 | 41 | 1008.0 |
| 20260505220503 | 23 | 250 | 4.8 | 11.3 | 0.00 | 0.00 | 0.00 | 41 | 1008.0 |
| 20260505220014 | 23 | 261 | 4.8 | 14.5 | 0.00 | 0.00 | 0.00 | 41 | 1007.9 |
| 20260505215506 | 23 | 218 | 6.4 | 16.1 | 0.00 | 0.00 | 0.00 | 41 | 1007.9 |
| 20260505215006 | 23 | 243 | 9.7 | 20.9 | 0.00 | 0.00 | 0.00 | 40 | 1007.8 |
| 20260505214524 | 23 | 247 | 9.7 | 20.9 | 0.00 | 0.00 | 0.00 | 40 | 1007.9 |
| 20260505214008 | 23 | 263 | 6.4 | 16.1 | 0.00 | 0.00 | 0.00 | 41 | 1007.8 |
| 20260505213507 | 23 | 236 | 6.4 | 12.9 | 0.00 | 0.00 | 0.00 | 41 | 1007.8 |
| 20260505213024 | 23 | 250 | 8.0 | 19.3 | 0.00 | 0.00 | 0.00 | 40 | 1007.8 |
| 20260505212503 | 23 | 246 | 4.8 | 19.3 | 0.00 | 0.00 | 0.00 | 40 | 1007.8 |
| 20260505212003 | 23 | 242 | 11.3 | 19.3 | 0.00 | 0.00 | 0.00 | 40 | 1007.8 |
| 20260505211508 | 23 | 227 | 12.9 | 24.1 | 0.00 | 0.00 | 0.00 | 39 | 1007.7 |
| 20260505211004 | 23 | 286 | 11.3 | 24.1 | 0.00 | 0.00 | 0.00 | 39 | 1007.7 |
| 20260505210508 | 23 | 242 | 6.4 | 17.7 | 0.00 | 0.00 | 0.00 | 40 | 1007.7 |
| 20260505210012 | 23 | 260 | 8.0 | 20.9 | 0.00 | 0.00 | 0.00 | 39 | 1007.6 |
| 20260505205505 | 23 | 240 | 8.0 | 20.9 | 0.00 | 0.00 | 0.00 | 39 | 1007.6 |
| 20260505205007 | 23 | 244 | 0.0 | 8.0 | 0.00 | 0.00 | 0.00 | 40 | 1007.6 |
| 20260505204517 | 23 | 236 | 0.0 | 0.0 | 0.00 | 0.00 | 0.00 | 38 | 1007.6 |
| 20260505204008 | 24 | 225 | 0.0 | 3.2 | 0.00 | 0.00 | 0.00 | 38 | 1007.6 |
| 20260505203509 | 24 | 227 | 0.0 | 25.7 | 0.00 | 0.00 | 0.00 | 38 | 1007.4 |
| 20260505203022 | 24 | 247 | 0.0 | 25.7 | 0.00 | 0.00 | 0.00 | 37 | 1007.5 |
| 20260505202508 | 24 | 234 | 9.7 | 19.3 | 0.00 | 0.00 | 0.00 | 38 | 1007.5 |
| 20260505202008 | 25 | 236 | 6.4 | 20.9 | 0.00 | 0.00 | 0.00 | 37 | 1007.3 |
| 20260505201510 | 25 | 225 | 9.7 | 25.7 | 0.00 | 0.00 | 0.00 | 38 | 1007.7 |
| 20260505201004 | 25 | 232 | 12.9 | 22.5 | 0.00 | 0.00 | 0.00 | 37 | 1007.6 |
| 20260505200505 | 25 | 229 | 12.9 | 24.1 | 0.00 | 0.00 | 0.00 | 37 | 1007.7 |
| 20260505200008 | 25 | 232 | 9.7 | 24.1 | 0.00 | 0.00 | 0.00 | 36 | 1007.6 |
| 20260505195508 | 25 | 253 | 9.7 | 19.3 | 0.00 | 0.00 | 0.00 | 36 | 1007.6 |
| 20260505195006 | 26 | 225 | 6.4 | 19.3 | 0.00 | 0.00 | 0.00 | 37 | 1007.7 |
| 20260505194527 | 26 | 232 | 9.7 | 19.3 | 0.00 | 0.00 | 0.00 | 36 | 1007.7 |
| 20260505194006 | 26 | 236 | 8.0 | 17.7 | 0.00 | 0.00 | 0.00 | 35 | 1007.5 |
| 20260505193510 | 26 | 213 | 6.4 | 17.7 | 0.00 | 0.00 | 0.00 | 38 | 1007.6 |
| 20260505193018 | 26 | 189 | 6.4 | 20.9 | 0.00 | 0.00 | 0.00 | 37 | 1007.6 |
| 20260505192516 | 26 | 215 | 3.2 | 20.9 | 0.00 | 0.00 | 0.00 | 39 | 1007.6 |
| 20260505192009 | 26 | 252 | 11.3 | 20.9 | 0.00 | 0.00 | 0.00 | 36 | 1007.7 |
| 20260505191526 | 26 | 232 | 9.7 | 22.5 | 0.00 | 0.00 | 0.00 | 36 | 1007.9 |
| 20260505191007 | 26 | 243 | 12.9 | 22.5 | 0.00 | 0.00 | 0.00 | 35 | 1007.9 |
| 20260505190503 | 25 | 261 | 11.3 | 20.9 | 0.00 | 0.00 | 0.00 | 36 | 1007.9 |
| 20260505190007 | 25 | 238 | 11.3 | 20.9 | 0.00 | 0.00 | 0.00 | 38 | 1008.1 |
| 20260505185507 | 25 | 237 | 9.7 | 19.3 | 0.00 | 0.00 | 0.00 | 36 | 1008.2 |
| 20260505185010 | 25 | 232 | 8.0 | 17.7 | 0.00 | 0.00 | 0.00 | 40 | 1008.3 |
| 20260505184514 | 24 | 273 | 9.7 | 22.5 | 0.00 | 0.00 | 0.00 | 39 | 1008.3 |
| 20260505184006 | 25 | 249 | 4.8 | 22.5 | 0.00 | 0.00 | 0.00 | 36 | 1008.5 |
| 20260505183507 | 25 | 241 | 11.3 | 20.9 | 0.00 | 0.00 | 0.00 | 36 | 1008.3 |
| 20260505183027 | 25 | 246 | 6.4 | 22.5 | 0.00 | 0.00 | 0.00 | 37 | 1008.5 |
| 20260505182511 | 25 | 249 | 14.5 | 24.1 | 0.00 | 0.00 | 0.00 | 35 | 1008.7 |
| 20260505182010 | 25 | 246 | 16.1 | 25.7 | 0.00 | 0.00 | 0.00 | 35 | 1008.7 |
| 20260505181524 | 25 | 264 | 11.3 | 25.7 | 0.00 | 0.00 | 0.00 | 36 | 1008.8 |
| 20260505181009 | 25 | 241 | 8.0 | 17.7 | 0.00 | 0.00 | 0.00 | 38 | 1008.7 |
| 20260505180508 | 25 | 248 | 11.3 | 24.1 | 0.00 | 0.00 | 0.00 | 39 | 1008.8 |
| 20260505180026 | 25 | 250 | 6.4 | 24.1 | 0.00 | 0.00 | 0.00 | 39 | 1008.9 |
| 20260505175510 | 25 | 257 | 14.5 | 24.1 | 0.00 | 0.00 | 0.00 | 36 | 1008.8 |
| 20260505175005 | 25 | 217 | 14.5 | 24.1 | 0.00 | 0.00 | 0.00 | 37 | 1008.8 |
| 20260505174509 | 25 | 229 | 12.9 | 24.1 | 0.00 | 0.00 | 0.00 | 38 | 1008.7 |
| 20260505174006 | 25 | 227 | 6.4 | 29.0 | 0.00 | 0.00 | 0.00 | 40 | 1008.8 |
| 20260505173509 | 25 | 248 | 11.3 | 29.0 | 0.00 | 0.00 | 0.00 | 40 | 1009.0 |
| 20260505173017 | 25 | 273 | 9.7 | 19.3 | 0.00 | 0.00 | 0.00 | 39 | 1008.8 |
| 20260505172505 | 25 | 212 | 11.3 | 24.1 | 0.00 | 0.00 | 0.00 | 40 | 1008.7 |
| 20260505172005 | 25 | 254 | 17.7 | 24.1 | 0.00 | 0.00 | 0.00 | 39 | 1008.7 |
| 20260505171521 | 25 | 234 | 14.5 | 24.1 | 0.00 | 0.00 | 0.00 | 40 | 1009.0 |
| 20260505171006 | 25 | 251 | 11.3 | 24.1 | 0.00 | 0.00 | 0.00 | 40 | 1009.0 |
| 20260505170507 | 25 | 252 | 11.3 | 20.9 | 0.00 | 0.00 | 0.00 | 40 | 1009.1 |
| 20260505170022 | 25 | 213 | 6.4 | 16.1 | 0.00 | 0.00 | 0.00 | 41 | 1009.0 |
| 20260505165509 | 25 | 273 | 8.0 | 24.1 | 0.00 | 0.00 | 0.00 | 39 | 1009.2 |
| 20260505165008 | 25 | 247 | 12.9 | 20.9 | 0.00 | 0.00 | 0.00 | 41 | 1009.3 |
| 20260505164526 | 25 | 267 | 4.8 | 22.5 | 0.00 | 0.00 | 0.00 | 41 | 1009.3 |
| 20260505164011 | 25 | 223 | 6.4 | 22.5 | 0.00 | 0.00 | 0.00 | 43 | 1009.4 |
| 20260505163507 | 25 | 253 | 4.8 | 12.9 | 0.00 | 0.00 | 0.00 | 41 | 1009.6 |
| 20260505163026 | 25 | 266 | 8.0 | 17.7 | 0.00 | 0.00 | 0.00 | 40 | 1009.5 |
| 20260505162505 | 25 | 234 | 8.0 | 17.7 | 0.00 | 0.00 | 0.00 | 41 | 1009.6 |
| 20260505162010 | 25 | 241 | 4.8 | 19.3 | 0.00 | 0.00 | 0.00 | 42 | 1009.6 |
| 20260505161519 | 24 | 244 | 11.3 | 17.7 | 0.00 | 0.00 | 0.00 | 43 | 1009.7 |
| 20260505161007 | 24 | 265 | 8.0 | 17.7 | 0.00 | 0.00 | 0.00 | 42 | 1009.6 |
| 20260505160514 | 24 | 321 | 8.0 | 20.9 | 0.00 | 0.00 | 0.00 | 43 | 1009.6 |
| 20260505153010 | 23 | 222 | 8.0 | 19.3 | 0.00 | 0.00 | 0.00 | 46 | 1010.0 |
| 20260505152506 | 23 | 223 | 12.9 | 17.7 | 0.00 | 0.00 | 0.00 | 47 | 1010.0 |
| 20260505152011 | 23 | 257 | 6.4 | 17.7 | 0.00 | 0.00 | 0.00 | 48 | 1010.1 |
| 20260505151528 | 23 | 232 | 4.8 | 14.5 | 0.00 | 0.00 | 0.00 | 49 | 1010.0 |
| 20260505151007 | 23 | 227 | 8.0 | 20.9 | 0.00 | 0.00 | 0.00 | 49 | 1010.0 |
| 20260505150507 | 23 | 263 | 11.3 | 20.9 | 0.00 | 0.00 | 0.00 | 48 | 1010.0 |
| 20260505140507 | 21 | 251 | 4.8 | 14.5 | 0.00 | 0.00 | 0.00 | 52 | 1010.3 |
| 20260505125007 | 18 | 261 | 8.0 | 12.9 | 0.00 | 0.00 | 0.00 | 57 | 1010.7 |
| 20260505124527 | 18 | 250 | 6.4 | 12.9 | 0.00 | 0.00 | 0.00 | 55 | 1010.6 |
| 20260505124007 | 18 | 238 | 6.4 | 12.9 | 0.00 | 0.00 | 0.00 | 57 | 1010.6 |
| 20260505123510 | 18 | 237 | 4.8 | 16.1 | 0.00 | 0.00 | 0.00 | 56 | 1010.3 |
| 20260505123029 | 18 | 249 | 6.4 | 16.1 | 0.00 | 0.00 | 0.00 | 57 | 1010.3 |
| 20260505122508 | 18 | 259 | 4.8 | 11.3 | 0.00 | 0.00 | 0.00 | 57 | 1010.3 |
| 20260505122004 | 17 | 244 | 4.8 | 12.9 | 0.00 | 0.00 | 0.00 | 60 | 1010.4 |
| 20260505121514 | 17 | 261 | 8.0 | 16.1 | 0.00 | 0.00 | 0.00 | 58 | 1010.3 |
| 20260505121008 | 17 | 227 | 9.7 | 16.1 | 0.00 | 0.00 | 0.00 | 60 | 1010.4 |
| 20260505120508 | 17 | 225 | 8.0 | 14.5 | 0.00 | 0.00 | 0.00 | 60 | 1010.4 |
| 20260505120028 | 17 | 246 | 9.7 | 14.5 | 0.00 | 0.00 | 0.00 | 60 | 1010.5 |
| 20260505115511 | 16 | 252 | 9.7 | 12.9 | 0.00 | 0.00 | 0.00 | 60 | 1010.4 |
| 20260505115010 | 16 | 245 | 8.0 | 14.5 | 0.00 | 0.00 | 0.00 | 61 | 1010.4 |
| 20260505114528 | 16 | 243 | 9.7 | 14.5 | 0.00 | 0.00 | 0.00 | 60 | 1010.3 |
| 20260505114009 | 16 | 256 | 6.4 | 12.9 | 0.00 | 0.00 | 0.00 | 60 | 1010.1 |
| 20260505113507 | 17 | 254 | 6.4 | 14.5 | 0.00 | 0.00 | 0.00 | 60 | 1010.2 |
| 20260505113024 | 16 | 229 | 8.0 | 14.5 | 0.00 | 0.00 | 0.00 | 61 | 1010.2 |
| 20260505112507 | 16 | 229 | 4.8 | 14.5 | 0.00 | 0.00 | 0.00 | 61 | 1010.2 |
| 20260505112009 | 16 | 233 | 6.4 | 14.5 | 0.00 | 0.00 | 0.00 | 61 | 1010.2 |
| 20260505111525 | 16 | 257 | 6.4 | 16.1 | 0.00 | 0.00 | 0.00 | 61 | 1010.2 |
| 20260505111009 | 16 | 260 | 9.7 | 16.1 | 0.00 | 0.00 | 0.00 | 60 | 1010.2 |
| 20260505110505 | 16 | 248 | 6.4 | 14.5 | 0.00 | 0.00 | 0.00 | 61 | 1010.1 |
| 20260505102008 | 15 | 264 | 8.0 | 16.1 | 0.00 | 0.00 | 0.00 | 63 | 1009.6 |
| 20260505101538 | 15 | 235 | 6.4 | 16.1 | 0.00 | 0.00 | 0.00 | 63 | 1009.6 |
| 20260505101014 | 15 | 232 | 8.0 | 17.7 | 0.00 | 0.00 | 0.00 | 62 | 1009.6 |
| 20260505100510 | 15 | 254 | 9.7 | 17.7 | 0.00 | 0.00 | 0.00 | 62 | 1009.6 |
| 20260505100027 | 15 | 215 | 8.0 | 19.3 | 0.00 | 0.00 | 0.00 | 62 | 1009.5 |
| 20260505095505 | 15 | 216 | 11.3 | 19.3 | 0.00 | 0.00 | 0.00 | 62 | 1009.4 |
| 20260505095006 | 15 | 248 | 9.7 | 14.5 | 0.00 | 0.00 | 0.00 | 63 | 1009.5 |
| 20260505094521 | 16 | 244 | 8.0 | 12.9 | 0.00 | 0.00 | 0.00 | 63 | 1009.4 |
| 20260505094005 | 16 | 244 | 6.4 | 14.5 | 0.00 | 0.00 | 0.00 | 62 | 1009.4 |
| 20260505093505 | 16 | 244 | 8.0 | 16.1 | 0.00 | 0.00 | 0.00 | 62 | 1009.4 |
| 20260505093020 | 16 | 234 | 8.0 | 14.5 | 0.00 | 0.00 | 0.00 | 62 | 1009.4 |
| 20260505092508 | 16 | 248 | 4.8 | 16.1 | 0.00 | 0.00 | 0.00 | 62 | 1009.4 |
| 20260505092008 | 16 | 223 | 8.0 | 14.5 | 0.00 | 0.00 | 0.00 | 62 | 1009.4 |
| 20260505091526 | 16 | 256 | 6.4 | 14.5 | 0.00 | 0.00 | 0.00 | 63 | 1009.3 |
| 20260505091008 | 15 | 231 | 6.4 | 14.5 | 0.00 | 0.00 | 0.00 | 63 | 1009.3 |
| 20260505090509 | 15 | 219 | 6.4 | 14.5 | 0.00 | 0.00 | 0.00 | 63 | 1009.2 |
| 20260505090028 | 15 | 230 | 6.4 | 12.9 | 0.00 | 0.00 | 0.00 | 64 | 1009.3 |
| 20260505085512 | 15 | 229 | 4.8 | 11.3 | 0.00 | 0.00 | 0.00 | 64 | 1009.3 |
| 20260505085011 | 15 | 246 | 4.8 | 11.3 | 0.00 | 0.00 | 0.00 | 64 | 1009.4 |
| 20260505084528 | 15 | 251 | 4.8 | 12.9 | 0.00 | 0.00 | 0.00 | 64 | 1009.4 |
| 20260505084005 | 15 | 236 | 6.4 | 12.9 | 0.00 | 0.00 | 0.00 | 64 | 1009.5 |
| 20260505083508 | 15 | 246 | 6.4 | 12.9 | 0.00 | 0.00 | 0.00 | 64 | 1009.4 |
| 20260505083022 | 15 | 259 | 6.4 | 12.9 | 0.00 | 0.00 | 0.00 | 64 | 1009.4 |
| 20260505082505 | 15 | 246 | 4.8 | 11.3 | 0.00 | 0.00 | 0.00 | 64 | 1009.4 |
| 20260505082010 | 15 | 261 | 6.4 | 12.9 | 0.00 | 0.00 | 0.00 | 64 | 1009.3 |
| 20260505081522 | 15 | 254 | 8.0 | 12.9 | 0.00 | 0.00 | 0.00 | 64 | 1009.2 |
| 20260505081014 | 16 | 234 | 8.0 | 14.5 | 0.00 | 0.00 | 0.00 | 64 | 1009.1 |
| 20260505080510 | 16 | 258 | 6.4 | 16.1 | 0.00 | 0.00 | 0.00 | 63 | 1009.2 |
| 20260505080024 | 16 | 249 | 8.0 | 22.5 | 0.00 | 0.00 | 0.00 | 62 | 1009.2 |
| 20260505075508 | 16 | 214 | 9.7 | 22.5 | 0.00 | 0.00 | 0.00 | 60 | 1009.3 |
| 20260505075016 | 16 | 248 | 11.3 | 20.9 | 0.00 | 0.00 | 0.00 | 58 | 1009.3 |
| 20260505074528 | 16 | 240 | 11.3 | 16.1 | 0.00 | 0.00 | 0.00 | 58 | 1009.5 |
| 20260505074008 | 16 | 236 | 6.4 | 11.3 | 0.00 | 0.00 | 0.00 | 58 | 1009.5 |
| 20260505073511 | 16 | 240 | 4.8 | 11.3 | 0.00 | 0.00 | 0.00 | 58 | 1009.3 |
| 20260505073020 | 16 | 248 | 6.4 | 9.7 | 0.00 | 0.00 | 0.00 | 58 | 1009.2 |
| 20260505072505 | 16 | 239 | 3.2 | 9.7 | 0.00 | 0.00 | 0.00 | 58 | 1009.2 |
| 20260505072005 | 16 | 227 | 4.8 | 9.7 | 0.00 | 0.00 | 0.00 | 58 | 1009.3 |
| 20260505071530 | 16 | 251 | 3.2 | 9.7 | 0.00 | 0.00 | 0.00 | 58 | 1009.3 |
| 20260505071007 | 16 | 240 | 3.2 | 11.3 | 0.00 | 0.00 | 0.00 | 58 | 1009.4 |
| 20260505070509 | 16 | 259 | 6.4 | 11.3 | 0.00 | 0.00 | 0.00 | 58 | 1009.5 |
| 20260505070027 | 15 | 267 | 3.2 | 8.0 | 0.00 | 0.00 | 0.00 | 58 | 1009.5 |
| 20260505065507 | 15 | 259 | 3.2 | 8.0 | 0.00 | 0.00 | 0.00 | 58 | 1009.5 |
| 20260505065007 | 15 | 250 | 4.8 | 9.7 | 0.00 | 0.00 | 0.00 | 57 | 1009.5 |
| 20260505064525 | 15 | 250 | 4.8 | 9.7 | 0.00 | 0.00 | 0.00 | 58 | 1009.5 |
| 20260505064009 | 15 | 229 | 4.8 | 8.0 | 0.00 | 0.00 | 0.00 | 57 | 1009.6 |
| 20260505063509 | 16 | 261 | 3.2 | 11.3 | 0.00 | 0.00 | 0.00 | 57 | 1009.6 |
| 20260505063025 | 16 | 234 | 4.8 | 11.3 | 0.00 | 0.00 | 0.00 | 57 | 1009.6 |
| 20260505062506 | 16 | 223 | 4.8 | 9.7 | 0.00 | 0.00 | 0.00 | 56 | 1009.6 |
| 20260505062005 | 16 | 221 | 3.2 | 9.7 | 0.00 | 0.00 | 0.00 | 56 | 1009.7 |
| 20260505061519 | 16 | 258 | 4.8 | 11.3 | 0.00 | 0.00 | 0.00 | 56 | 1009.8 |
| 20260505061005 | 16 | 243 | 4.8 | 11.3 | 0.00 | 0.00 | 0.00 | 56 | 1009.7 |
| 20260505060510 | 16 | 232 | 4.8 | 11.3 | 0.00 | 0.00 | 0.00 | 56 | 1009.8 |
| 20260505060007 | 16 | 231 | 4.8 | 12.9 | 0.00 | 0.00 | 0.00 | 56 | 1009.8 |
| 20260505055503 | 16 | 226 | 4.8 | 12.9 | 0.00 | 0.00 | 0.00 | 56 | 1009.8 |
| 20260505055012 | 16 | 238 | 4.8 | 12.9 | 0.00 | 0.00 | 0.00 | 56 | 1009.9 |
| 20260505054511 | 16 | 257 | 6.4 | 12.9 | 0.00 | 0.00 | 0.00 | 55 | 1009.8 |
| 20260505054011 | 16 | 241 | 6.4 | 12.9 | 0.00 | 0.00 | 0.00 | 55 | 1009.8 |
| 20260505053503 | 16 | 227 | 3.2 | 12.9 | 0.00 | 0.00 | 0.00 | 55 | 1009.9 |
| 20260505053010 | 16 | 225 | 4.8 | 12.9 | 0.00 | 0.00 | 0.00 | 56 | 1009.9 |
| 20260505052505 | 16 | 232 | 4.8 | 12.9 | 0.00 | 0.00 | 0.00 | 55 | 1009.8 |
| 20260505052006 | 16 | 228 | 6.4 | 16.1 | 0.00 | 0.00 | 0.00 | 55 | 1009.9 |
| 20260505051525 | 16 | 247 | 6.4 | 16.1 | 0.00 | 0.00 | 0.00 | 55 | 1009.8 |
| 20260505051006 | 16 | 242 | 6.4 | 12.9 | 0.00 | 0.00 | 0.00 | 55 | 1009.7 |
| 20260505050507 | 16 | 253 | 8.0 | 14.5 | 0.00 | 0.00 | 0.00 | 55 | 1009.7 |
| 20260505041521 | 16 | 232 | 6.4 | 14.5 | 0.00 | 0.00 | 0.00 | 52 | 1009.5 |
| 20260505041005 | 16 | 227 | 6.4 | 14.5 | 0.00 | 0.00 | 0.00 | 51 | 1009.5 |
| 20260505040506 | 16 | 273 | 8.0 | 16.1 | 0.00 | 0.00 | 0.00 | 51 | 1009.4 |
| 20260505040020 | 16 | 254 | 6.4 | 16.1 | 0.00 | 0.00 | 0.00 | 51 | 1009.3 |
| 20260505035506 | 16 | 257 | 8.0 | 16.1 | 0.00 | 0.00 | 0.00 | 51 | 1009.4 |